Time,TemperatureF,DewpointF,PressureIn,WindDirection,WindDirectionDegrees,WindSpeedMPH,WindSpeedGustMPH,Humidity,HourlyPrecipIn,Conditions,Clouds,dailyrainin,SoftwareType,DateUTC
2013-07-01 00:02:00,65.4,53.7,30.06,NNE,20,3.0,30.0,66,0.00,,,0.00,Wunderground v.1.15,2013-07-01 05:02:00,
2013-07-01 00:12:00,65.0,54.2,30.06,North,356,3.0,3.0,68,0.00,,,0.00,Wunderground v.1.15,2013-07-01 05:12:00,
2013-07-01 00:22:00,63.9,53.9,30.06,NW,319,3.0,3.0,70,0.00,,,0.00,Wunderground v.1.15,2013-07-01 05:22:00,
2013-07-01 00:32:00,62.8,54.0,30.07,NNW,330,2.0,30.0,73,0.00,,,0.00,Wunderground v.1.15,2013-07-01 05:32:00,
2013-07-01 00:42:00,62.4,54.0,30.07,NNE,32,2.0,30.0,74,0.00,,,0.00,Wunderground v.1.15,2013-07-01 05:42:00,
2013-07-01 00:52:00,62.2,54.2,30.07,North,360,3.0,30.0,75,0.00,,,0.00,Wunderground v.1.15,2013-07-01 05:52:00,
2013-07-01 01:02:00,61.9,54.2,30.07,North,9,3.0,30.0,76,0.00,,,0.00,Wunderground v.1.15,2013-07-01 06:02:00,
2013-07-01 01:12:00,61.4,54.1,30.07,North,9,4.0,30.0,77,0.00,,,0.00,Wunderground v.1.15,2013-07-01 06:12:00,
2013-07-01 01:22:00,61.6,54.3,30.07,NNE,18,4.0,4.0,77,0.00,,,0.00,Wunderground v.1.15,2013-07-01 06:22:00,
2013-07-01 01:32:00,62.1,54.1,30.07,NNE,25,6.0,6.0,75,0.00,,,0.00,Wunderground v.1.15,2013-07-01 06:32:00,
2013-07-01 01:42:00,62.9,54.1,30.08,NNE,19,6.0,30.0,73,0.00,,,0.00,Wunderground v.1.15,2013-07-01 06:42:00,
2013-07-01 01:52:00,63.1,54.3,30.08,NW,326,6.0,6.0,73,0.00,,,0.00,Wunderground v.1.15,2013-07-01 06:52:00,
2013-07-01 02:02:00,62.5,54.1,30.08,NNW,336,3.0,30.0,74,0.00,,,0.00,Wunderground v.1.15,2013-07-01 07:02:00,
2013-07-01 02:12:00,61.7,54.1,30.07,NW,304,3.0,3.0,76,0.00,,,0.00,Wunderground v.1.15,2013-07-01 07:12:00,
2013-07-01 02:22:00,61.0,54.1,30.07,NW,313,3.0,30.0,78,0.00,,,0.00,Wunderground v.1.15,2013-07-01 07:22:00,
2013-07-01 02:32:00,60.9,54.3,30.07,NNE,12,4.0,30.0,79,0.00,,,0.00,Wunderground v.1.15,2013-07-01 07:32:00,
2013-07-01 02:42:00,60.7,54.1,30.08,NW,315,4.0,4.0,79,0.00,,,0.00,Wunderground v.1.15,2013-07-01 07:42:00,
2013-07-01 02:52:00,60.4,54.2,30.08,NW,316,3.0,3.0,80,0.00,,,0.00,Wunderground v.1.15,2013-07-01 07:52:00,
2013-07-01 03:02:00,60.3,54.4,30.08,North,9,3.0,30.0,81,0.00,,,0.00,Wunderground v.1.15,2013-07-01 08:02:00,
2013-07-01 03:12:00,60.2,54.3,30.08,NW,316,4.0,30.0,81,0.00,,,0.00,Wunderground v.1.15,2013-07-01 08:12:00,
2013-07-01 03:22:00,59.9,54.4,30.08,NNW,336,4.0,30.0,82,0.00,,,0.00,Wunderground v.1.15,2013-07-01 08:22:00,
2013-07-01 03:32:00,59.6,54.1,30.08,NNW,345,4.0,4.0,82,0.00,,,0.00,Wunderground v.1.15,2013-07-01 08:32:00,
2013-07-01 03:42:00,59.7,54.2,30.08,NNW,345,4.0,4.0,82,0.00,,,0.00,Wunderground v.1.15,2013-07-01 08:42:00,
2013-07-01 03:52:00,59.7,54.2,30.08,NNW,337,4.0,4.0,82,0.00,,,0.00,Wunderground v.1.15,2013-07-01 08:52:00,
2013-07-01 04:02:00,59.7,54.2,30.08,North,8,3.0,30.0,82,0.00,,,0.00,Wunderground v.1.15,2013-07-01 09:02:00,
2013-07-01 04:12:00,59.5,54.3,30.09,NW,311,3.0,3.0,83,0.00,,,0.00,Wunderground v.1.15,2013-07-01 09:12:00,
2013-07-01 04:22:00,59.4,54.2,30.09,North,6,3.0,3.0,83,0.00,,,0.00,Wunderground v.1.15,2013-07-01 09:22:00,
2013-07-01 04:32:00,59.1,54.3,30.09,NNE,12,4.0,30.0,84,0.00,,,0.00,Wunderground v.1.15,2013-07-01 09:32:00,
2013-07-01 04:42:00,58.9,54.1,30.09,North,353,4.0,30.0,84,0.00,,,0.00,Wunderground v.1.15,2013-07-01 09:42:00,
2013-07-01 04:52:00,58.8,54.0,30.10,North,358,5.0,30.0,84,0.00,,,0.00,Wunderground v.1.15,2013-07-01 09:52:00,
2013-07-01 05:02:00,58.7,53.9,30.10,NNE,27,5.0,5.0,84,0.00,,,0.00,Wunderground v.1.15,2013-07-01 10:02:00,
2013-07-01 05:12:00,58.7,54.2,30.10,North,353,5.0,30.0,85,0.00,,,0.00,Wunderground v.1.15,2013-07-01 10:12:00,
2013-07-01 05:22:00,58.9,54.1,30.10,NNE,29,5.0,30.0,84,0.00,,,0.00,Wunderground v.1.15,2013-07-01 10:22:00,
2013-07-01 05:32:00,59.0,53.8,30.10,NE,34,6.0,30.0,83,0.00,,,0.00,Wunderground v.1.15,2013-07-01 10:32:00,
2013-07-01 05:42:00,58.9,53.7,30.11,NNE,18,5.0,30.0,83,0.00,,,0.00,Wunderground v.1.15,2013-07-01 10:42:00,
2013-07-01 05:52:00,58.6,53.8,30.11,NNE,22,5.0,30.0,84,0.00,,,0.00,Wunderground v.1.15,2013-07-01 10:52:00,
2013-07-01 06:02:00,58.2,53.7,30.11,NNW,329,4.0,30.0,85,0.00,,,0.00,Wunderground v.1.15,2013-07-01 11:02:00,
2013-07-01 06:12:00,57.8,53.6,30.11,NNE,12,5.0,5.0,86,0.00,,,0.00,Wunderground v.1.15,2013-07-01 11:12:00,
2013-07-01 06:22:00,57.8,53.6,30.11,NNE,18,4.0,30.0,86,0.00,,,0.00,Wunderground v.1.15,2013-07-01 11:22:00,
2013-07-01 06:32:00,57.7,53.5,30.12,NW,321,4.0,30.0,86,0.00,,,0.00,Wunderground v.1.15,2013-07-01 11:32:00,
2013-07-01 06:42:00,57.6,53.4,30.12,North,357,3.0,30.0,86,0.00,,,0.00,Wunderground v.1.15,2013-07-01 11:42:00,
2013-07-01 06:52:00,57.8,54.0,30.12,NE,39,4.0,4.0,87,0.00,,,0.00,Wunderground v.1.15,2013-07-01 11:52:00,
2013-07-01 07:02:00,58.3,54.1,30.12,NNE,30,4.0,4.0,86,0.00,,,0.00,Wunderground v.1.15,2013-07-01 12:02:00,
2013-07-01 07:12:00,58.8,54.3,30.12,NNW,332,4.0,30.0,85,0.00,,,0.00,Wunderground v.1.15,2013-07-01 12:12:00,
2013-07-01 07:22:00,59.3,54.8,30.13,West,260,4.0,30.0,85,0.00,,,0.00,Wunderground v.1.15,2013-07-01 12:22:00,
2013-07-01 07:32:00,59.8,55.3,30.13,North,1,5.0,30.0,85,0.00,,,0.00,Wunderground v.1.15,2013-07-01 12:32:00,
2013-07-01 07:42:00,60.4,55.5,30.13,North,8,5.0,30.0,84,0.00,,,0.00,Wunderground v.1.15,2013-07-01 12:42:00,
2013-07-01 07:51:00,61.1,55.6,30.13,ENE,59,6.0,30.0,82,0.00,,,0.00,Wunderground v.1.15,2013-07-01 12:51:00,
2013-07-01 08:02:00,61.8,55.9,30.13,North,1,6.0,30.0,81,0.00,,,0.00,Wunderground v.1.15,2013-07-01 13:02:00,
2013-07-01 08:12:00,62.5,56.2,30.14,North,350,6.0,6.0,80,0.00,,,0.00,Wunderground v.1.15,2013-07-01 13:12:00,
2013-07-01 08:22:00,63.1,56.1,30.14,North,357,6.0,30.0,78,0.00,,,0.00,Wunderground v.1.15,2013-07-01 13:22:00,
2013-07-01 08:32:00,63.5,56.2,30.15,NE,44,8.0,8.0,77,0.00,,,0.00,Wunderground v.1.15,2013-07-01 13:32:00,
2013-07-01 08:42:00,64.2,56.8,30.15,North,8,7.0,30.0,77,0.00,,,0.00,Wunderground v.1.15,2013-07-01 13:42:00,
2013-07-01 08:52:00,64.6,56.9,30.15,NNW,345,7.0,7.0,76,0.00,,,0.00,Wunderground v.1.15,2013-07-01 13:52:00,
2013-07-01 09:02:00,65.4,57.3,30.15,North,354,6.0,30.0,75,0.00,,,0.00,Wunderground v.1.15,2013-07-01 14:02:00,
2013-07-01 09:12:00,66.3,57.0,30.15,NE,49,7.0,7.0,72,0.00,,,0.00,Wunderground v.1.15,2013-07-01 14:12:00,
2013-07-01 09:22:00,66.7,57.0,30.15,NE,47,9.0,30.0,71,0.00,,,0.00,Wunderground v.1.15,2013-07-01 14:22:00,
2013-07-01 09:32:00,67.1,57.0,30.15,NNE,18,9.0,30.0,70,0.00,,,0.00,Wunderground v.1.15,2013-07-01 14:32:00,
2013-07-01 09:42:00,67.8,57.7,30.15,NNE,18,7.0,30.0,70,0.00,,,0.00,Wunderground v.1.15,2013-07-01 14:42:00,
2013-07-01 09:52:00,68.2,56.8,30.15,NNE,22,8.0,30.0,67,0.00,,,0.00,Wunderground v.1.15,2013-07-01 14:52:00,
2013-07-01 10:02:00,68.9,57.1,30.15,NNE,15,8.0,30.0,66,0.00,,,0.00,Wunderground v.1.15,2013-07-01 15:02:00,
2013-07-01 10:12:00,69.3,55.7,30.15,NE,52,8.0,8.0,62,0.00,,,0.00,Wunderground v.1.15,2013-07-01 15:12:00,
2013-07-01 10:22:00,70.1,55.6,30.15,NNE,17,7.0,7.0,60,0.00,,,0.00,Wunderground v.1.15,2013-07-01 15:22:00,
2013-07-01 10:32:00,71.0,55.5,30.15,North,352,8.0,8.0,58,0.00,,,0.00,Wunderground v.1.15,2013-07-01 15:32:00,
2013-07-01 10:42:00,71.9,55.3,30.15,NE,34,8.0,8.0,56,0.00,,,0.00,Wunderground v.1.15,2013-07-01 15:42:00,
2013-07-01 10:52:00,72.8,53.6,30.15,NE,56,8.0,30.0,51,0.00,,,0.00,Wunderground v.1.15,2013-07-01 15:52:00,
2013-07-01 11:02:00,73.1,54.4,30.15,NE,41,10.0,10.0,52,0.00,,,0.00,Wunderground v.1.15,2013-07-01 16:02:00,
2013-07-01 11:12:00,73.9,53.0,30.15,ENE,60,8.0,30.0,48,0.00,,,0.00,Wunderground v.1.15,2013-07-01 16:12:00,
2013-07-01 11:22:00,74.1,51.4,30.15,ENE,78,9.0,30.0,45,0.00,,,0.00,Wunderground v.1.15,2013-07-01 16:22:00,
2013-07-01 11:32:00,74.5,51.2,30.15,NNE,15,9.0,9.0,44,0.00,,,0.00,Wunderground v.1.15,2013-07-01 16:32:00,
2013-07-01 11:42:00,74.8,49.5,30.15,NE,47,11.0,11.0,41,0.00,,,0.00,Wunderground v.1.15,2013-07-01 16:42:00,
2013-07-01 11:52:00,75.1,49.8,30.14,North,352,10.0,10.0,41,0.00,,,0.00,Wunderground v.1.15,2013-07-01 16:52:00,
2013-07-01 12:02:00,76.1,49.3,30.14,NE,47,9.0,30.0,39,0.00,,,0.00,Wunderground v.1.15,2013-07-01 17:02:00,
2013-07-01 12:12:00,76.0,48.6,30.14,NNE,32,13.0,30.0,38,0.00,,,0.00,Wunderground v.1.15,2013-07-01 17:12:00,
2013-07-01 12:22:00,76.1,49.3,30.14,NE,56,11.0,11.0,39,0.00,,,0.00,Wunderground v.1.15,2013-07-01 17:22:00,
2013-07-01 12:32:00,76.8,48.6,30.14,North,8,11.0,30.0,37,0.00,,,0.00,Wunderground v.1.15,2013-07-01 17:32:00,
2013-07-01 12:42:00,76.7,49.2,30.13,NE,42,10.0,10.0,38,0.00,,,0.00,Wunderground v.1.15,2013-07-01 17:42:00,
2013-07-01 12:52:00,77.1,48.8,30.13,NNE,25,12.0,30.0,37,0.00,,,0.00,Wunderground v.1.15,2013-07-01 17:52:00,
2013-07-01 13:02:00,77.4,50.5,30.13,ENE,63,9.0,30.0,39,0.00,,,0.00,Wunderground v.1.15,2013-07-01 18:02:00,
2013-07-01 13:12:00,77.4,49.1,30.13,ENE,70,11.0,30.0,37,0.00,,,0.00,Wunderground v.1.15,2013-07-01 18:12:00,
2013-07-01 13:22:00,77.8,48.7,30.13,SE,135,10.0,10.0,36,0.00,,,0.00,Wunderground v.1.15,2013-07-01 18:22:00,
2013-07-01 13:32:00,78.3,47.6,30.13,NE,37,11.0,30.0,34,0.00,,,0.00,Wunderground v.1.15,2013-07-01 18:32:00,
2013-07-01 13:42:00,77.9,47.3,30.13,NNE,25,10.0,30.0,34,0.00,,,0.00,Wunderground v.1.15,2013-07-01 18:42:00,
2013-07-01 13:52:00,78.3,48.4,30.12,ENE,58,10.0,10.0,35,0.00,,,0.00,Wunderground v.1.15,2013-07-01 18:52:00,
2013-07-01 14:02:00,78.4,46.9,30.12,ENE,65,8.0,30.0,33,0.00,,,0.00,Wunderground v.1.15,2013-07-01 19:02:00,
2013-07-01 14:12:00,78.8,47.3,30.12,NE,39,9.0,30.0,33,0.00,,,0.00,Wunderground v.1.15,2013-07-01 19:12:00,
2013-07-01 14:22:00,78.8,48.1,30.12,ENE,68,9.0,30.0,34,0.00,,,0.00,Wunderground v.1.15,2013-07-01 19:22:00,
2013-07-01 14:32:00,79.1,47.5,30.11,East,92,10.0,10.0,33,0.00,,,0.00,Wunderground v.1.15,2013-07-01 19:32:00,
2013-07-01 14:42:00,79.1,48.3,30.11,NE,53,11.0,11.0,34,0.00,,,0.00,Wunderground v.1.15,2013-07-01 19:42:00,
2013-07-01 14:52:00,79.4,48.6,30.11,ENE,63,7.0,30.0,34,0.00,,,0.00,Wunderground v.1.15,2013-07-01 19:52:00,
2013-07-01 15:02:00,79.3,48.5,30.10,NNE,32,9.0,9.0,34,0.00,,,0.00,Wunderground v.1.15,2013-07-01 20:02:00,
2013-07-01 15:12:00,79.6,48.8,30.11,East,101,8.0,30.0,34,0.00,,,0.00,Wunderground v.1.15,2013-07-01 20:12:00,
2013-07-01 15:22:00,79.8,48.9,30.10,ENE,63,8.0,30.0,34,0.00,,,0.00,Wunderground v.1.15,2013-07-01 20:22:00,
2013-07-01 15:32:00,79.6,48.0,30.10,ESE,121,10.0,10.0,33,0.00,,,0.00,Wunderground v.1.15,2013-07-01 20:32:00,
2013-07-01 15:42:00,80.2,48.5,30.10,North,1,9.0,9.0,33,0.00,,,0.00,Wunderground v.1.15,2013-07-01 20:42:00,
2013-07-01 15:52:00,80.1,48.4,30.09,East,90,10.0,30.0,33,0.00,,,0.00,Wunderground v.1.15,2013-07-01 20:52:00,
2013-07-01 16:02:00,80.2,50.1,30.09,NNE,22,10.0,30.0,35,0.00,,,0.00,Wunderground v.1.15,2013-07-01 21:02:00,
2013-07-01 16:12:00,80.6,49.6,30.09,East,91,10.0,10.0,34,0.00,,,0.00,Wunderground v.1.15,2013-07-01 21:12:00,
2013-07-01 16:22:00,81.0,48.4,30.09,NNE,29,7.0,30.0,32,0.00,,,0.00,Wunderground v.1.15,2013-07-01 21:22:00,
2013-07-01 16:32:00,80.6,49.6,30.09,NE,41,8.0,8.0,34,0.00,,,0.00,Wunderground v.1.15,2013-07-01 21:32:00,
2013-07-01 16:42:00,80.6,48.8,30.08,NE,54,7.0,30.0,33,0.00,,,0.00,Wunderground v.1.15,2013-07-01 21:42:00,
2013-07-01 17:02:00,80.9,48.3,30.08,NNW,329,9.0,9.0,32,0.00,,,0.00,Wunderground v.1.15,2013-07-01 22:02:00,
2013-07-01 17:12:00,81.2,50.9,30.08,ENE,65,8.0,30.0,35,0.00,,,0.00,Wunderground v.1.15,2013-07-01 22:12:00,
2013-07-01 17:22:00,79.4,49.4,30.08,NE,46,7.0,7.0,35,0.00,,,0.00,Wunderground v.1.15,2013-07-01 22:22:00,
2013-07-01 17:32:00,81.2,49.4,30.08,NE,54,7.0,30.0,33,0.00,,,0.00,Wunderground v.1.15,2013-07-01 22:32:00,
2013-07-01 17:42:00,81.0,49.2,30.08,ENE,77,9.0,30.0,33,0.00,,,0.00,Wunderground v.1.15,2013-07-01 22:42:00,
2013-07-01 17:52:00,80.2,50.1,30.08,ENE,67,9.0,30.0,35,0.00,,,0.00,Wunderground v.1.15,2013-07-01 22:52:00,
2013-07-01 18:02:00,81.0,50.0,30.07,NNE,26,8.0,30.0,34,0.00,,,0.00,Wunderground v.1.15,2013-07-01 23:02:00,
2013-07-01 18:12:00,80.8,49.8,30.07,NE,39,8.0,8.0,34,0.00,,,0.00,Wunderground v.1.15,2013-07-01 23:12:00,
2013-07-01 18:22:00,80.0,49.9,30.07,NE,56,9.0,30.0,35,0.00,,,0.00,Wunderground v.1.15,2013-07-01 23:22:00,
2013-07-01 18:32:00,80.4,48.7,30.07,ENE,60,8.0,30.0,33,0.00,,,0.00,Wunderground v.1.15,2013-07-01 23:32:00,
2013-07-01 18:42:00,80.2,50.1,30.07,East,86,10.0,10.0,35,0.00,,,0.00,Wunderground v.1.15,2013-07-01 23:42:00,
2013-07-01 18:51:00,80.3,49.4,30.07,NE,54,8.0,8.0,34,0.00,,,0.00,Wunderground v.1.15,2013-07-01 23:51:00,
2013-07-01 19:01:00,80.2,49.3,30.08,ENE,73,9.0,30.0,34,0.00,,,0.00,Wunderground v.1.15,2013-07-02 00:01:00,
2013-07-01 19:12:00,80.4,49.5,30.08,NE,48,7.0,30.0,34,0.00,,,0.00,Wunderground v.1.15,2013-07-02 00:12:00,
2013-07-01 19:22:00,80.1,49.2,30.08,NE,53,9.0,9.0,34,0.00,,,0.00,Wunderground v.1.15,2013-07-02 00:22:00,
2013-07-01 19:32:00,79.7,48.8,30.08,NE,41,8.0,30.0,34,0.00,,,0.00,Wunderground v.1.15,2013-07-02 00:32:00,
2013-07-01 19:42:00,79.5,49.4,30.08,ENE,58,8.0,8.0,35,0.00,,,0.00,Wunderground v.1.15,2013-07-02 00:42:00,
2013-07-01 19:52:00,79.2,49.2,30.08,ENE,59,9.0,9.0,35,0.00,,,0.00,Wunderground v.1.15,2013-07-02 00:52:00,
2013-07-01 20:02:00,78.8,49.6,30.08,NE,51,6.0,30.0,36,0.00,,,0.00,Wunderground v.1.15,2013-07-02 01:02:00,
2013-07-01 20:12:00,78.4,50.0,30.09,North,360,5.0,30.0,37,0.00,,,0.00,Wunderground v.1.15,2013-07-02 01:12:00,
2013-07-01 20:22:00,77.8,50.2,30.08,NE,53,6.0,30.0,38,0.00,,,0.00,Wunderground v.1.15,2013-07-02 01:22:00,
2013-07-01 20:32:00,76.9,50.7,30.09,NNE,25,5.0,5.0,40,0.00,,,0.00,Wunderground v.1.15,2013-07-02 01:32:00,
2013-07-01 20:42:00,76.1,50.7,30.09,NE,42,5.0,30.0,41,0.00,,,0.00,Wunderground v.1.15,2013-07-02 01:42:00,
2013-07-01 20:52:00,75.4,50.7,30.09,ENE,57,5.0,30.0,42,0.00,,,0.00,Wunderground v.1.15,2013-07-02 01:52:00,
2013-07-01 21:02:00,74.8,50.2,30.09,NE,47,5.0,30.0,42,0.00,,,0.00,Wunderground v.1.15,2013-07-02 02:02:00,
2013-07-01 21:12:00,74.4,50.4,30.09,NE,41,5.0,5.0,43,0.00,,,0.00,Wunderground v.1.15,2013-07-02 02:12:00,
2013-07-01 21:22:00,74.0,50.7,30.10,ENE,57,5.0,30.0,44,0.00,,,0.00,Wunderground v.1.15,2013-07-02 02:22:00,
2013-07-01 21:32:00,73.5,50.9,30.09,ENE,68,5.0,30.0,45,0.00,,,0.00,Wunderground v.1.15,2013-07-02 02:32:00,
2013-07-01 21:42:00,73.1,51.1,30.10,NE,51,4.0,30.0,46,0.00,,,0.00,Wunderground v.1.15,2013-07-02 02:42:00,
2013-07-01 21:52:00,72.7,50.7,30.10,NNE,30,5.0,30.0,46,0.00,,,0.00,Wunderground v.1.15,2013-07-02 02:52:00,
2013-07-01 22:02:00,72.2,50.8,30.11,NE,49,4.0,30.0,47,0.00,,,0.00,Wunderground v.1.15,2013-07-02 03:02:00,
2013-07-01 22:12:00,71.8,51.0,30.11,NE,35,4.0,4.0,48,0.00,,,0.00,Wunderground v.1.15,2013-07-02 03:12:00,
2013-07-01 22:22:00,71.5,50.8,30.12,NE,47,4.0,30.0,48,0.00,,,0.00,Wunderground v.1.15,2013-07-02 03:22:00,
2013-07-01 22:32:00,71.2,51.1,30.12,NE,49,4.0,4.0,49,0.00,,,0.00,Wunderground v.1.15,2013-07-02 03:32:00,
2013-07-01 22:42:00,70.9,50.8,30.12,NE,49,4.0,4.0,49,0.00,,,0.00,Wunderground v.1.15,2013-07-02 03:42:00,
2013-07-01 22:52:00,70.5,51.0,30.12,NE,53,4.0,4.0,50,0.00,,,0.00,Wunderground v.1.15,2013-07-02 03:52:00,
2013-07-01 23:02:00,70.1,50.6,30.12,NE,52,3.0,30.0,50,0.00,,,0.00,Wunderground v.1.15,2013-07-02 04:02:00,
2013-07-01 23:12:00,69.7,50.8,30.12,NE,34,3.0,30.0,51,0.00,,,0.00,Wunderground v.1.15,2013-07-02 04:12:00,
2013-07-01 23:22:00,69.6,50.7,30.13,NE,39,3.0,3.0,51,0.00,,,0.00,Wunderground v.1.15,2013-07-02 04:22:00,
2013-07-01 23:32:00,68.7,50.9,30.13,NNE,32,2.0,30.0,53,0.00,,,0.00,Wunderground v.1.15,2013-07-02 04:32:00,
2013-07-01 23:42:00,67.6,51.3,30.13,NNW,345,1.0,1.0,56,0.00,,,0.00,Wunderground v.1.15,2013-07-02 04:42:00,
2013-07-01 23:52:00,66.3,51.5,30.13,NNW,343,0.0,30.0,59,0.00,,,0.00,Wunderground v.1.15,2013-07-02 04:52:00,